RH
81 85 80 80 92 89 78 77 82 82 82 73 63 71 89 96 100 97 92 63 34 65 82 60 91 87 80 65 54 60 68 68 54 50 40 36 33 32 30 32 28 25 28 30 38
85 77 82 88 77 87 90 79 74 82 85 79 66 62 93 91 95 100 81 58 33 53 99 90 98 95 86 66 59 61 73 66 49 45 42 39 37 35 35 37 30 30 42 36 35
85 91 92 92 85 96 96 82 85 78 82 76 64 82 81 99 98 96 72 70 47 47 83 98 87 94 83 70 66 65 65 56 50 42 41 45 46 42 40 39 32 32 50 60 63
92 90 85 91 89 93 82 93 95 83 83 83 73 92 96 99 93 78 78 56 62 39 88 99 87 93 82 76 66 69 62 51 45 48 50 49 44 44 42 36 36 36 36 44 73
92 88 81 90 75 82 74 78 71 73 78 76 73 88 93 98 93 75 96 94 85 73 96 95 96 85 76 70 66 66 59 53 48 51 50 49 48 45 43 37 37 36 35 36 38
80 82 87 77 79 92 84 80 76 72 72 73 79 82 94 98 88 77 64 71 85 92 94 94 87 78 69 69 62 60 55 55 52 50 47 51 49 47 42 34 37 36 32 33 33
77 81 80 84 77 78 76 77 70 70 71 72 77 83 99 89 85 67 77 71 92 82 92 90 81 65 68 70 59 61 67 59 54 54 51 49 53 61 40 39 37 34 33 32 34
81 80 79 80 83 93 81 71 68 74 72 76 72 86 92 66 84 85 84 61 100 78 98 88 76 66 62 60 63 67 60 75 56 57 50 45 54 46 41 43 42 38 36 36 28
90 95 86 89 93 85 70 64 70 72 62 82 69 83 81 74 87 77 86 90 96 91 88 79 81 75 68 73 79 73 84 79 61 58 55 52 62 48 45 44 42 40 38 38 34
88 92 92 89 91 80 79 74 65 67 69 86 76 93 78 90 77 82 79 89 89 84 83 82 76 88 86 78 82 80 80 78 65 52 59 64 68 53 41 43 42 37 34 36 38
96 93 92 86 76 81 89 72 66 79 87 71 74 79 74 86 78 73 76 100 86 80 90 89 90 88 80 73 62 65 71 71 65 53 52 60 60 50 43 42 42 38 35 32 31
87 90 87 89 77 82 80 82 85 88 87 66 68 82 82 99 96 70 76 93 87 96 91 97 87 70 67 65 66 69 76 76 62 52 51 57 56 46 41 43 40 40 38 36 34
84 80 94 95 78 72 86 92 98 90 85 77 86 75 95 97 84 84 79 78 87 94 94 97 90 66 69 77 75 80 78 76 68 56 55 60 55 45 38 35 33 34 32 29 30
75 86 92 91 81 94 95 95 98 79 86 90 84 90 98 86 80 76 69 76 87 93 90 94 90 84 81 78 72 92 72 62 59 65 71 60 66 53 45 32 36 44 41 37 34
79 83 92 92 94 94 97 90 85 90 73 63 84 94 89 93 79 75 68 75 86 85 80 89 97 93 91 89 72 83 58 61 62 69 66 65 65 43 36 37 38 42 44 44 43
76 77 87 97 93 92 84 88 86 82 98 91 92 94 95 82 80 74 70 70 74 77 71 65 58 66 88 85 80 58 60 66 70 70 81 64 65 38 38 39 40 40 43 46 50
68 75 59 76 93 90 91 90 87 92 79 100 99 98 85 95 79 73 89 78 93 99 100 95 75 57 69 87 64 57 73 86 67 82 77 72 74 49 41 40 40 40 42 46 52
66 70 62 77 88 94 92 84 89 94 99 97 98 87 83 89 84 81 86 82 69 82 97 94 95 65 56 64 74 67 68 84 56 65 58 72 73 41 44 37 38 42 48 48 55
49 55 70 80 80 90 96 96 93 97 100 100 91 98 100 90 83 94 84 78 70 61 79 81 92 61 62 59 58 68 80 60 83 79 81 59 53 32 42 42 40 44 48 52 55
61 56 71 86 82 83 89 97 99 99 96 84 95 83 97 92 100 95 76 67 69 62 56 66 94 70 63 56 60 62 64 79 85 73 58 46 50 32 42 41 45 46 47 50 57
63 57 74 84 79 79 99 100 98 89 94 78 87 87 89 88 81 78 69 66 59 63 58 64 72 84 65 71 76 72 79 80 72 73 57 45 31 40 39 44 49 45 46 51 75
63 83 70 82 85 94 98 96 87 85 84 66 64 69 73 70 71 74 70 61 56 54 66 62 78 94 81 65 62 63 73 69 80 81 90 84 50 42 43 44 46 43 48 54 78
82 66 64 81 98 97 87 92 88 88 80 57 60 59 60 64 70 69 65 61 55 54 61 59 79 95 87 71 68 75 73 68 72 82 97 79 42 44 50 46 42 47 49 68 82
86 92 70 78 92 92 92 93 82 80 67 58 61 56 63 71 69 71 70 72 58 59 54 53 71 71 80 72 81 90 82 73 76 90 80 82 61 47 45 48 48 48 54 82 81
90 94 94 99 91 91 86 85 80 86 71 61 62 61 66 76 74 78 73 72 68 69 62 62 84 79 73 68 82 79 81 81 82 76 81 58 72 51 49 52 47 52 80 85 77
97 94 89 91 88 82 78 77 83 86 83 73 77 76 63 70 62 80 74 71 71 66 65 67 97 88 85 72 83 89 79 82 77 75 75 71 72 48 47 48 59 79 87 81 73
95 98 100 86 89 83 82 74 76 76 83 80 76 80 80 81 77 60 57 58 63 71 74 71 90 87 84 75 79 91 82 79 82 78 67 83 62 52 54 59 63 85 87 77 74
Wind_Speed
25 24 23 22 23 22 22 20 21 21 19 21 21 29 29 21 6 22 27 26 23 8 7 25 23 18 12 11 9 8 2 5 9 9 4 5 5 5 4 4 3 4 6 7 6
26 26 26 25 24 20 22 23 22 20 20 16 19 17 26 31 22 26 31 22 19 20 13 19 27 19 8 9 8 6 4 9 5 7 4 8 5 4 2 1 3 3 4 9 9
25 25 24 23 21 20 21 21 21 19 19 18 16 18 18 18 17 23 25 26 22 19 19 16 26 19 8 9 7 6 4 4 4 8 7 9 4 5 5 3 5 2 3 5 9
25 24 22 22 19 19 19 18 18 19 17 17 15 15 16 13 6 4 3 15 24 23 22 20 27 16 7 6 9 4 7 7 3 10 5 5 5 2 7 5 3 2 6 5 5
24 24 23 21 19 20 18 17 16 16 15 16 15 15 13 12 18 9 8 4 24 28 31 26 28 18 13 10 8 3 3 11 6 5 3 4 5 6 11 11 10 11 11 7 4
25 23 22 21 18 18 16 14 13 13 13 12 13 12 12 10 9 24 8 6 20 34 33 27 22 18 14 9 8 9 9 4 8 8 3 4 5 7 5 7 13 16 19 18 15
25 23 23 21 18 18 16 14 12 10 12 12 12 11 14 22 3 16 20 18 15 39 37 26 24 19 14 5 10 9 4 5 9 6 3 3 5 6 22 22 25 24 22 21 20
25 24 21 21 16 17 16 15 11 12 11 10 9 9 9 19 15 10 20 13 17 37 32 28 26 12 5 11 6 5 2 3 2 10 8 6 5 5 3 9 17 18 19 21 26
27 25 24 19 18 16 14 13 14 13 12 9 7 6 6 12 12 13 8 10 27 29 28 29 24 10 6 6 4 4 4 5 3 9 3 8 2 5 5 7 13 17 19 19 22
28 27 21 17 17 11 13 12 15 7 6 7 7 5 10 9 13 14 7 9 26 25 20 20 9 4 3 5 9 9 4 3 6 3 2 3 5 8 19 12 14 17 21 24 25
33 27 19 18 12 7 11 13 4 1 3 3 5 7 11 4 13 16 7 13 21 22 9 17 6 16 17 5 4 8 5 4 3 1 2 4 4 10 16 17 19 24 27 27 27
33 28 20 14 9 8 10 4 1 3 4 5 12 13 16 4 7 18 10 7 11 7 5 7 12 9 12 8 6 6 6 4 1 2 1 4 9 15 10 7 14 16 19 19 19
32 29 20 8 5 6 5 4 7 2 2 4 3 11 10 8 13 22 12 1 4 10 13 1 1 15 13 9 9 2 5 3 2 1 2 6 5 4 3 5 13 14 4 4 6
31 29 17 3 2 1 7 7 4 5 4 3 3 4 3 10 5 13 13 2 3 7 16 3 3 8 13 15 8 5 3 3 4 2 1 4 4 4 3 5 7 18 25 21 18
31 22 19 7 1 2 4 5 7 2 6 6 2 3 5 3 14 6 7 3 4 6 4 1 9 16 9 2 8 2 4 4 3 4 1 2 2 4 1 4 5 7 17 18 18
32 18 14 15 14 10 6 6 3 5 3 3 4 5 2 7 2 8 6 3 4 9 12 4 3 4 3 5 5 9 5 5 3 2 1 1 2 2 1 2 1 4 15 16 18
22 20 14 13 10 7 3 4 4 5 5 3 2 3 10 5 6 3 1 3 4 4 3 4 4 4 12 8 4 1 3 1 2 2 2 2 1 5 3 2 5 1 14 15 16
14 15 12 9 7 5 12 4 9 2 2 2 0 12 7 5 7 4 2 4 5 5 4 3 4 4 1 4 7 1 1 3 3 3 1 2 5 2 4 6 4 10 12 14 16
8 8 12 11 9 9 7 5 4 2 3 1 6 7 5 8 4 4 3 3 3 1 5 5 3 1 5 3 1 3 2 1 6 2 1 2 5 6 2 3 3 13 19 21 20
10 8 9 13 10 9 3 3 1 4 3 2 4 2 3 3 3 1 2 2 3 3 2 1 5 3 2 4 10 3 6 2 2 3 3 3 4 3 4 5 4 9 16 19 18
8 3 12 15 5 5 3 3 3 2 2 2 3 5 3 4 3 2 1 1 2 3 6 3 3 2 3 1 5 2 1 4 4 1 2 2 3 4 6 5 4 12 19 19 17
7 3 11 9 5 3 3 5 5 4 2 2 3 4 3 2 3 3 3 2 3 5 4 1 4 3 1 1 1 2 4 3 3 3 1 1 5 2 5 4 8 16 18 17 21
9 5 7 8 3 3 3 3 2 3 3 2 2 2 1 3 4 2 2 4 5 3 5 5 2 3 1 1 2 2 4 4 4 3 4 4 3 1 2 7 14 11 19 15 19
5 3 4 5 5 2 3 3 3 2 2 3 3 4 4 4 5 3 2 4 3 3 8 6 3 4 5 4 3 3 3 4 5 3 4 5 5 8 7 6 14 19 15 14 15
5 1 3 3 3 3 1 3 1 3 4 6 3 2 4 3 2 3 3 3 4 6 4 3 3 2 2 1 3 3 4 8 6 5 5 2 6 8 10 8 15 15 10 13 14
5 4 4 4 5 3 2 4 2 0 2 2 5 2 1 4 3 6 6 3 4 2 3 2 3 2 3 0 5 4 7 9 8 3 8 7 17 14 21 13 10 6 10 11 13
8 4 3 5 3 1 1 1 3 1 4 5 5 4 6 3 1 5 3 7 8 6 3 4 5 2 3 2 2 5 9 12 5 5 9 7 10 3 7 7 11 8 6 10 11
Wind_Direction
318 315 314 312 310 306 299 295 294 290 288 296 318 248 256 262 267 240 237 237 225 179 168 188 188 187 177 180 173 163 138 195 201 168 204 170 169 171 178 209 212 213 255 254 292
319 316 313 313 306 307 304 295 288 285 285 284 301 296 260 257 290 251 243 245 232 204 194 200 187 179 176 180 174 167 186 207 198 173 185 165 171 173 168 22 210 200 263 269 253
325 322 315 309 311 307 297 296 292 285 281 282 284 301 271 273 295 261 248 244 233 205 198 201 193 184 181 174 176 174 203 180 206 186 148 154 163 159 143 255 236 161 10 312 208
323 321 316 315 310 306 306 304 298 290 278 276 280 286 288 265 244 161 158 224 217 200 188 192 190 178 164 182 176 155 206 176 189 192 145 161 150 190 214 216 139 222 328 347 265
323 319 317 320 317 316 314 310 304 295 286 275 270 276 284 239 228 230 161 163 198 186 189 187 178 183 188 184 142 178 188 205 212 156 195 180 198 234 252 256 250 256 269 257 267
323 323 318 318 318 319 314 312 303 293 283 277 271 271 262 258 252 220 206 284 204 182 186 182 189 179 179 183 174 194 197 166 224 244 247 192 230 207 255 260 252 251 255 261 259
324 324 320 313 317 315 313 313 306 294 285 275 278 269 247 219 234 214 246 251 218 185 185 180 171 171 158 128 172 130 143 248 233 216 241 155 271 229 254 253 260 261 263 263 259
325 321 319 311 311 308 308 308 308 311 293 269 262 258 249 228 244 212 213 219 200 189 190 180 167 150 153 129 120 118 89 164 239 180 218 155 249 231 303 245 257 266 271 265 257
327 326 322 313 313 306 304 307 314 298 276 261 240 233 248 221 225 199 182 191 178 186 189 183 174 178 133 120 101 172 187 197 299 190 137 202 233 227 279 285 282 285 285 280 272
324 317 311 314 312 302 303 310 320 302 256 186 209 166 249 204 196 196 197 195 178 176 175 183 179 145 129 173 190 168 136 175 200 178 160 194 261 271 290 290 277 283 284 279 275
329 327 307 304 315 288 313 335 351 16 183 213 210 223 161 166 177 198 179 159 166 150 178 180 172 197 186 148 161 134 135 167 197 113 193 231 250 272 272 274 266 267 267 270 275
337 327 313 298 300 278 316 326 335 301 317 276 255 260 251 311 166 196 179 180 161 181 53 156 204 182 156 141 133 131 142 188 85 71 153 335 285 262 256 248 273 284 284 288 292
347 345 331 269 265 287 329 313 233 166 286 332 107 239 242 208 140 198 178 168 121 131 132 120 267 161 165 167 138 132 154 169 129 43 79 319 297 307 34 28 47 38 341 360 18
359 359 9 114 297 348 351 342 222 167 77 14 130 199 271 123 99 180 164 98 76 129 125 156 163 126 148 181 167 152 96 105 111 91 275 0 300 307 12 69 33 42 58 59 57
11 16 24 32 50 311 350 101 130 208 68 298 348 54 64 354 138 170 173 323 112 94 154 57 157 155 151 102 109 133 132 118 101 98 56 21 131 274 277 75 21 4 35 42 46
6 24 23 64 62 66 74 121 162 39 38 344 30 22 209 126 110 125 152 31 109 59 47 69 75 66 94 63 101 154 80 58 55 95 63 229 206 298 142 123 327 325 28 34 36
9 23 50 71 79 88 103 309 30 54 281 62 74 339 120 120 115 104 127 94 103 119 74 43 16 73 115 77 43 44 136 57 24 47 210 24 145 251 258 208 194 352 20 29 25
0 1 44 69 101 72 344 37 57 23 2 56 276 138 102 126 73 74 163 88 60 70 109 119 114 359 28 138 160 133 179 158 186 182 210 72 230 229 214 312 174 358 14 24 18
352 340 8 6 342 330 344 47 158 284 307 39 85 58 52 53 79 77 347 77 43 52 128 131 80 14 43 91 85 186 97 133 104 24 7 206 279 292 89 170 260 348 11 9 4
339 334 359 349 338 338 67 76 3 195 242 172 81 49 88 87 78 86 53 282 105 35 48 115 93 35 167 73 39 98 136 89 11 138 248 269 268 207 222 212 286 349 0 356 354
354 19 3 358 27 41 53 35 313 308 218 110 167 105 105 136 125 124 49 348 75 54 78 110 86 26 121 74 160 118 119 59 104 103 174 299 266 208 199 195 310 343 351 348 347
3 30 358 0 54 22 12 335 328 308 264 265 100 91 103 133 77 84 127 168 171 133 79 59 114 112 118 163 198 149 154 144 124 206 99 93 274 243 209 225 326 317 342 342 340
344 316 5 23 68 19 322 305 269 323 343 31 92 103 97 114 106 104 104 350 145 97 155 177 58 97 126 176 14 183 169 122 97 71 203 159 254 202 276 289 316 311 340 336 341
345 6 354 35 95 96 5 312 338 317 320 25 102 71 93 61 28 133 102 11 194 83 106 98 110 149 181 199 132 166 168 172 134 152 179 228 295 288 297 302 318 330 335 333 340
10 60 348 317 1 353 146 289 333 1 351 34 56 65 141 115 98 111 106 110 40 129 65 95 117 111 253 156 130 198 176 184 198 188 172 252 226 273 281 296 305 312 329 341 342
24 1 335 278 306 298 18 10 1 328 339 3 109 40 150 136 175 185 135 149 178 65 102 23 127 96 346 152 204 242 222 198 218 228 264 265 286 275 274 296 302 345 342 335 345
18 347 331 295 338 49 269 295 308 234 54 71 143 95 49 324 163 142 131 140 149 139 129 114 132 88 274 351 298 281 223 198 185 205 210 209 234 318 307 318 330 327 330 341 344